Simultaneous Nadir Overpasses (SNOs) Predictions

Prediction of SNOs between GOES-16 and NOAA-19 Satellite Orbit:

Table of predicted SNOs for the next 14.0 days since TLE Epoch: 6/3/2023
Index Date Time (GOES-16) GOES-16 Lat,Lon NOAA-19 Lat,Lon Distance(km) Time Diff (sec)
1 06/05/2023 01:43:20 0.03, -75.20 -0.38, -76.88 192.36 80
2 06/06/2023 01:28:39 0.04, -75.20 0.31, -73.95 142.02 80
3 06/07/2023 01:16:37 0.04, -75.20 1.00, -71.02 476.46 80
4 06/08/2023 13:51:28 -0.05, -75.22 0.77, -78.74 402.02 80
5 06/09/2023 13:39:26 -0.05, -75.23 0.08, -75.81 66.95 80
6 06/10/2023 13:24:45 -0.06, -75.23 -0.62, -72.89 268.43 80
7 06/13/2023 01:47:30 0.05, -75.26 -0.50, -77.66 274.03 80
8 06/14/2023 01:32:49 0.05, -75.27 0.20, -74.73 62.02 80
9 06/15/2023 01:20:47 0.06, -75.29 0.84, -71.80 398.08 80
10 06/16/2023 13:55:36 -0.05, -75.32 0.94, -79.51 477.96 80
